Tracking 30058 objects as of 9-Dec-2024
HD Live streaming from Space Station
objects crossing your sky now

SITRO-AIS-29

Track SITRO-AIS-29 now!
10-day predictions
SITRO-AIS-29 is classified as:


NORAD ID: 59052
Int'l Code: 2024-039B
Perigee: 427.5 km
Apogee: 440.0 km
Inclination: 97.4 °
Period: 93.1 minutes
Semi major axis: 6804 km
RCS: Unknown
Launch date: February 29, 2024
Source: (TBD)
Launch site: VOSTOCHNY COSMODROME (VOSTO)

Uplink (MHz):
Downlink (MHz): 401.360
Beacon (MHz):
Mode: 2k4 GMSK_USP
Call sign:
Status: Unknown

Your satellite tracking list
Your tracking list is empty




NASA's NSSDC Master Catalog

Two Line Element Set (TLE):
1 59052U 24039B   24344.15784151  .00076494  00000-0  15219-2 0  9998
2 59052  97.4086 306.8644 0009191 331.3201  28.7542 15.46621614 43440
Source of the keplerian elements: AFSPC